User: anonymous   Login
Location: Poughquag
(41.6090°N, 73.6820°W)
Time: 22:04:34
(UTC-04:00)
Language:

NANOSAT C BR1 - Orbit

View from above orbital plane
View from above orbital plane
View from above satellite
View from above satellite

Ground track
Ground track

The orbit data is extracted from the following two-line orbital elements,

1 40024U 14033Q   24194.49593638  .00010479  00000-0  76426-3 0  9997
2 40024  98.0633 167.6603 0008301  88.8751 271.3425 15.03890375547055
Epoch (UTC): 12 July 2024 11:54:08
Eccentricity: 0.0008301
inclination: 98.0633°
perigee height: 549 km
apogee height: 560 km
right ascension of ascending node: 167.6603°
argument of perigee: 88.8751°
revolutions per day: 15.03890375
mean anomaly at epoch: 271.3425°
orbit number at epoch: 54705

The dashed part of the orbit path shows where the satellite is in the earth's shadow,  

DLR